QPF
0.08 0.08 0.05 0.03 0.05 0.06 0.07 0.08 0.07 0.06 0.05 0.05 0.06 0.07 0.08 0.05 0.05 0.06 0.06 0.06 0.04 0.04 0.04 0.05 0.06 0.06 0.06 0.05 0.04 0.04 0.05 0.06 0.06 0.05 0.05 0.06 0.08 0.07
0.06 0.05 0.03 0.02 0.03 0.05 0.06 0.08 0.07 0.06 0.05 0.05 0.08 0.07 0.07 0.03 0.01 0.02 0.02 0.02 0.02 0.03 0.03 0.04 0.06 0.07 0.09 0.09 0.07 0.05 0.05 0.05 0.04 0.04 0.04 0.04 0.05 0.08
0.04 0.04 0.03 0.03 0.04 0.05 0.07 0.08 0.08 0.06 0.06 0.06 0.06 0.05 0.05 0.02 0.01 0.01 0.02 0.01 0.01 0.01 0.01 0.02 0.03 0.03 0.05 0.06 0.08 0.10 0.10 0.08 0.07 0.06 0.04 0.03 0.03 0.04
0.03 0.03 0.03 0.03 0.05 0.06 0.08 0.07 0.06 0.06 0.05 0.06 0.05 0.06 0.05 0.02 0.02 0.03 0.02 0.01 0.02 0.01 0.01 0.01 0.01 0.01 0.02 0.03 0.04 0.06 0.08 0.10 0.10 0.07 0.04 0.03 0.02 0.03
0.03 0.03 0.02 0.03 0.04 0.05 0.06 0.05 0.05 0.05 0.05 0.04 0.03 0.04 0.03 0.02 0.03 0.03 0.03 0.03 0.02 0.01 0.01 0.01 0.01 0.01 0.01 0.02 0.02 0.03 0.05 0.06 0.07 0.07 0.06 0.04 0.03 0.03
0.02 0.02 0.02 0.02 0.02 0.04 0.05 0.05 0.04 0.04 0.04 0.03 0.02 0.02 0.02 0.02 0.02 0.03 0.03 0.03 0.02 0.01 0.00 0.00 0.01 0.01 0.01 0.01 0.02 0.02 0.03 0.03 0.05 0.05 0.06 0.06 0.06 0.05
0.02 0.02 0.01 0.01 0.02 0.02 0.02 0.03 0.04 0.03 0.03 0.03 0.02 0.02 0.03 0.02 0.02 0.03 0.02 0.02 0.02 0.01 0.01 0.01 0.01 0.01 0.01 0.01 0.02 0.03 0.03 0.03 0.03 0.04 0.04 0.05 0.05 0.05
0.02 0.02 0.01 0.01 0.01 0.01 0.01 0.02 0.02 0.02 0.03 0.03 0.02 0.03 0.03 0.04 0.04 0.03 0.02 0.02 0.02 0.01 0.01 0.02 0.02 0.02 0.02 0.02 0.03 0.04 0.04 0.03 0.03 0.04 0.04 0.03 0.03 0.03
0.03 0.02 0.02 0.01 0.02 0.01 0.01 0.01 0.01 0.01 0.02 0.02 0.02 0.02 0.03 0.03 0.04 0.03 0.03 0.03 0.02 0.02 0.02 0.02 0.02 0.02 0.02 0.01 0.02 0.03 0.05 0.05 0.05 0.05 0.05 0.04 0.04 0.03
0.03 0.03 0.03 0.02 0.03 0.03 0.02 0.02 0.01 0.01 0.01 0.01 0.02 0.02 0.03 0.04 0.04 0.04 0.04 0.04 0.03 0.03 0.03 0.03 0.02 0.02 0.01 0.02 0.01 0.02 0.03 0.04 0.05 0.07 0.07 0.06 0.04 0.03
0.03 0.03 0.03 0.02 0.03 0.03 0.04 0.03 0.02 0.02 0.01 0.01 0.01 0.01 0.01 0.01 0.02 0.03 0.03 0.03 0.03 0.03 0.03 0.02 0.02 0.02 0.02 0.02 0.02 0.02 0.02 0.03 0.05 0.06 0.07 0.08 0.07 0.06
0.02 0.02 0.02 0.03 0.03 0.02 0.03 0.03 0.02 0.02 0.03 0.02 0.01 0.01 0.01 0.02 0.01 0.02 0.03 0.03 0.05 0.04 0.03 0.03 0.03 0.02 0.02 0.02 0.02 0.03 0.03 0.04 0.04 0.05 0.05 0.07 0.08 0.07
0.02 0.01 0.02 0.03 0.02 0.02 0.02 0.02 0.02 0.02 0.03 0.04 0.03 0.03 0.03 0.02 0.02 0.02 0.02 0.03 0.04 0.04 0.03 0.03 0.03 0.03 0.03 0.03 0.03 0.03 0.04 0.04 0.05 0.05 0.05 0.06 0.06 0.05
0.03 0.03 0.03 0.03 0.03 0.02 0.02 0.02 0.02 0.02 0.02 0.03 0.03 0.03 0.03 0.03 0.03 0.02 0.03 0.02 0.03 0.04 0.05 0.04 0.04 0.03 0.03 0.04 0.04 0.04 0.04 0.04 0.04 0.05 0.05 0.05 0.06 0.05
0.04 0.03 0.03 0.02 0.02 0.02 0.01 0.01 0.01 0.02 0.02 0.03 0.03 0.03 0.03 0.03 0.03 0.03 0.03 0.03 0.03 0.03 0.03 0.04 0.04 0.04 0.03 0.04 0.05 0.05 0.04 0.04 0.04 0.04 0.05 0.05 0.05 0.04
0.04 0.03 0.03 0.02 0.02 0.02 0.02 0.02 0.02 0.03 0.04 0.04 0.03 0.02 0.02 0.01 0.02 0.02 0.02 0.04 0.04 0.03 0.03 0.03 0.04 0.05 0.04 0.05 0.06 0.05 0.05 0.04 0.03 0.04 0.05 0.06 0.06 0.05
0.04 0.03 0.03 0.02 0.02 0.02 0.03 0.04 0.05 0.04 0.03 0.03 0.03 0.03 0.02 0.02 0.03 0.03 0.03 0.03 0.03 0.03 0.04 0.04 0.04 0.04 0.04 0.04 0.05 0.05 0.05 0.05 0.06 0.06 0.06 0.06 0.06 0.06
0.03 0.03 0.02 0.03 0.03 0.04 0.05 0.05 0.04 0.04 0.04 0.03 0.03 0.03 0.03 0.04 0.04 0.04 0.04 0.04 0.04 0.04 0.05 0.05 0.06 0.07 0.07 0.06 0.07 0.07 0.08 0.09 0.09 0.10 0.10 0.09 0.07 0.06
0.03 0.02 0.02 0.02 0.03 0.04 0.04 0.04 0.03 0.03 0.03 0.03 0.03 0.04 0.05 0.05 0.05 0.05 0.05 0.05 0.05 0.05 0.06 0.06 0.06 0.07 0.08 0.08 0.08 0.08 0.08 0.09 0.10 0.12 0.11 0.09 0.07 0.06
0.02 0.03 0.03 0.02 0.03 0.03 0.04 0.03 0.03 0.04 0.04 0.05 0.05 0.05 0.06 0.06 0.06 0.05 0.04 0.04 0.04 0.05 0.04 0.04 0.05 0.05 0.05 0.05 0.05 0.06 0.05 0.05 0.06 0.08 0.09 0.09 0.08 0.08
0.02 0.02 0.02 0.03 0.03 0.04 0.04 0.04 0.04 0.04 0.05 0.05 0.04 0.04 0.04 0.04 0.04 0.03 0.03 0.03 0.03 0.04 0.04 0.04 0.04 0.04 0.04 0.04 0.04 0.06 0.06 0.07 0.06 0.05 0.05 0.07 0.08 0.08
0.03 0.03 0.03 0.03 0.04 0.05 0.05 0.04 0.04 0.04 0.04 0.05 0.05 0.04 0.04 0.04 0.04 0.04 0.04 0.04 0.04 0.04 0.04 0.04 0.04 0.04 0.04 0.05 0.05 0.06 0.06 0.07 0.07 0.07 0.06 0.05 0.05 0.05
0.04 0.04 0.04 0.04 0.04 0.04 0.04 0.03 0.03 0.03 0.03 0.03 0.06 0.06 0.05 0.05 0.05 0.06 0.05 0.05 0.05 0.04 0.04 0.05 0.05 0.06 0.05 0.06 0.07 0.07 0.06 0.06 0.05 0.05 0.05 0.06 0.05 0.05
MSLP
1014.24 1014.25 1014.32 1014.41 1014.49 1014.50 1014.43 1014.25 1013.96 1013.58 1013.14 1012.69 1012.28 1011.93 1011.69 1011.57 1011.56 1011.66 1011.84 1012.07 1012.34 1012.61 1012.86 1013.09 1013.28 1013.44 1013.56 1013.65 1013.70 1013.73 1013.73 1013.71 1013.68 1013.65 1013.61 1013.58 1013.56 1013.53
1013.59 1013.56 1013.60 1013.70 1013.80 1013.88 1013.90 1013.82 1013.65 1013.38 1013.04 1012.66 1012.28 1011.94 1011.67 1011.47 1011.37 1011.36 1011.43 1011.56 1011.73 1011.93 1012.15 1012.36 1012.57 1012.76 1012.93 1013.09 1013.22 1013.32 1013.39 1013.44 1013.46 1013.46 1013.45 1013.43 1013.41 1013.40
1013.01 1012.95 1012.96 1013.04 1013.16 1013.28 1013.37 1013.38 1013.31 1013.16 1012.92 1012.63 1012.31 1011.99 1011.69 1011.44 1011.26 1011.13 1011.08 1011.08 1011.14 1011.24 1011.38 1011.54 1011.73 1011.93 1012.15 1012.36 1012.56 1012.74 1012.89 1013.01 1013.10 1013.15 1013.19 1013.20 1013.20 1013.21
1012.55 1012.45 1012.44 1012.50 1012.62 1012.76 1012.89 1012.98 1013.00 1012.94 1012.80 1012.60 1012.34 1012.05 1011.75 1011.47 1011.21 1010.98 1010.81 1010.68 1010.61 1010.59 1010.62 1010.71 1010.85 1011.04 1011.25 1011.50 1011.75 1012.00 1012.23 1012.43 1012.60 1012.72 1012.82 1012.88 1012.93 1012.96
1012.19 1012.08 1012.05 1012.10 1012.21 1012.35 1012.51 1012.63 1012.72 1012.73 1012.68 1012.55 1012.36 1012.12 1011.83 1011.53 1011.22 1010.92 1010.64 1010.39 1010.19 1010.04 1009.96 1009.95 1010.01 1010.13 1010.32 1010.56 1010.84 1011.13 1011.42 1011.70 1011.94 1012.15 1012.32 1012.46 1012.56 1012.64
1011.89 1011.80 1011.78 1011.82 1011.92 1012.05 1012.21 1012.35 1012.47 1012.54 1012.54 1012.48 1012.35 1012.16 1011.90 1011.61 1011.27 1010.92 1010.57 1010.22 1009.91 1009.64 1009.44 1009.31 1009.26 1009.30 1009.42 1009.62 1009.88 1010.18 1010.50 1010.83 1011.15 1011.44 1011.69 1011.91 1012.09 1012.24
1011.60 1011.57 1011.57 1011.62 1011.72 1011.84 1011.99 1012.13 1012.25 1012.34 1012.38 1012.37 1012.29 1012.15 1011.94 1011.67 1011.35 1010.98 1010.59 1010.18 1009.78 1009.42 1009.10 1008.85 1008.68 1008.61 1008.63 1008.75 1008.94 1009.21 1009.53 1009.88 1010.24 1010.59 1010.92 1011.23 1011.49 1011.73
1011.29 1011.34 1011.40 1011.49 1011.59 1011.71 1011.83 1011.95 1012.06 1012.15 1012.21 1012.22 1012.18 1012.09 1011.93 1011.70 1011.41 1011.06 1010.67 1010.24 1009.79 1009.35 1008.95 1008.59 1008.30 1008.10 1008.00 1008.00 1008.10 1008.29 1008.56 1008.89 1009.26 1009.65 1010.04 1010.42 1010.77 1011.09
1010.97 1011.12 1011.26 1011.40 1011.52 1011.64 1011.74 1011.83 1011.91 1011.98 1012.02 1012.04 1012.03 1011.97 1011.85 1011.68 1011.45 1011.14 1010.78 1010.36 1009.91 1009.43 1008.96 1008.52 1008.13 1007.81 1007.58 1007.45 1007.42 1007.50 1007.68 1007.95 1008.29 1008.68 1009.09 1009.52 1009.94 1010.33
1010.66 1010.92 1011.16 1011.36 1011.52 1011.64 1011.72 1011.78 1011.82 1011.85 1011.87 1011.87 1011.85 1011.81 1011.74 1011.61 1011.43 1011.19 1010.88 1010.51 1010.08 1009.62 1009.13 1008.63 1008.17 1007.74 1007.39 1007.12 1006.96 1006.91 1006.97 1007.14 1007.40 1007.75 1008.15 1008.58 1009.03 1009.47
1010.40 1010.78 1011.11 1011.38 1011.58 1011.71 1011.78 1011.81 1011.81 1011.79 1011.76 1011.73 1011.70 1011.66 1011.60 1011.52 1011.39 1011.21 1010.97 1010.66 1010.29 1009.86 1009.39 1008.88 1008.37 1007.88 1007.43 1007.05 1006.75 1006.56 1006.49 1006.53 1006.69 1006.95 1007.29 1007.68 1008.11 1008.55
1010.23 1010.70 1011.11 1011.45 1011.69 1011.84 1011.91 1011.91 1011.88 1011.81 1011.73 1011.66 1011.60 1011.54 1011.49 1011.42 1011.34 1011.21 1011.04 1010.81 1010.50 1010.13 1009.70 1009.23 1008.71 1008.19 1007.68 1007.20 1006.80 1006.48 1006.27 1006.17 1006.20 1006.34 1006.57 1006.89 1007.26 1007.65
1010.15 1010.69 1011.16 1011.53 1011.81 1011.98 1012.06 1012.05 1011.99 1011.89 1011.77 1011.66 1011.57 1011.49 1011.42 1011.36 1011.30 1011.22 1011.10 1010.93 1010.71 1010.41 1010.05 1009.62 1009.13 1008.61 1008.07 1007.55 1007.06 1006.63 1006.30 1006.07 1005.95 1005.96 1006.06 1006.26 1006.53 1006.84
1010.12 1010.68 1011.18 1011.59 1011.89 1012.08 1012.16 1012.16 1012.09 1011.98 1011.85 1011.72 1011.60 1011.49 1011.42 1011.35 1011.30 1011.25 1011.17 1011.06 1010.89 1010.67 1010.38 1010.01 1009.58 1009.09 1008.56 1008.01 1007.47 1006.97 1006.54 1006.19 1005.94 1005.80 1005.77 1005.83 1005.97 1006.16
1010.09 1010.64 1011.13 1011.53 1011.85 1012.05 1012.16 1012.18 1012.14 1012.04 1011.92 1011.79 1011.67 1011.56 1011.47 1011.41 1011.36 1011.31 1011.26 1011.18 1011.07 1010.90 1010.67 1010.37 1009.99 1009.55 1009.05 1008.50 1007.95 1007.40 1006.90 1006.45 1006.10 1005.83 1005.66 1005.58 1005.59 1005.65
1009.99 1010.48 1010.93 1011.32 1011.63 1011.85 1011.99 1012.06 1012.06 1012.01 1011.93 1011.84 1011.74 1011.65 1011.58 1011.51 1011.46 1011.41 1011.37 1011.30 1011.21 1011.08 1010.89 1010.64 1010.32 1009.92 1009.46 1008.94 1008.39 1007.83 1007.29 1006.78 1006.34 1005.97 1005.68 1005.48 1005.35 1005.29
1009.77 1010.18 1010.57 1010.92 1011.21 1011.45 1011.63 1011.76 1011.83 1011.86 1011.86 1011.84 1011.80 1011.75 1011.70 1011.64 1011.59 1011.54 1011.48 1011.41 1011.32 1011.19 1011.02 1010.80 1010.51 1010.15 1009.73 1009.24 1008.72 1008.16 1007.61 1007.07 1006.57 1006.13 1005.76 1005.46 1005.23 1005.06
1009.43 1009.75 1010.06 1010.36 1010.64 1010.89 1011.12 1011.31 1011.46 1011.59 1011.69 1011.75 1011.79 1011.81 1011.80 1011.77 1011.72 1011.66 1011.58 1011.48 1011.36 1011.22 1011.04 1010.81 1010.53 1010.20 1009.80 1009.35 1008.85 1008.32 1007.78 1007.24 1006.72 1006.25 1005.82 1005.45 1005.14 1004.89
1009.02 1009.25 1009.49 1009.74 1010.00 1010.26 1010.52 1010.77 1011.01 1011.24 1011.44 1011.60 1011.73 1011.81 1011.85 1011.85 1011.80 1011.73 1011.62 1011.48 1011.32 1011.13 1010.92 1010.67 1010.38 1010.05 1009.67 1009.25 1008.78 1008.29 1007.77 1007.25 1006.75 1006.26 1005.81 1005.41 1005.05 1004.74
1008.62 1008.77 1008.95 1009.15 1009.39 1009.65 1009.94 1010.24 1010.55 1010.86 1011.15 1011.40 1011.60 1011.75 1011.83 1011.85 1011.81 1011.72 1011.57 1011.39 1011.18 1010.94 1010.68 1010.40 1010.09 1009.74 1009.37 1008.97 1008.53 1008.07 1007.60 1007.11 1006.63 1006.16 1005.71 1005.29 1004.90 1004.56
1008.29 1008.39 1008.52 1008.69 1008.90 1009.15 1009.45 1009.78 1010.14 1010.50 1010.85 1011.16 1011.42 1011.61 1011.72 1011.76 1011.71 1011.60 1011.42 1011.20 1010.94 1010.65 1010.34 1010.01 1009.68 1009.32 1008.95 1008.56 1008.15 1007.73 1007.29 1006.84 1006.39 1005.95 1005.51 1005.09 1004.69 1004.32
1008.08 1008.15 1008.25 1008.38 1008.57 1008.80 1009.09 1009.43 1009.80 1010.18 1010.55 1010.89 1011.18 1011.39 1011.52 1011.56 1011.50 1011.37 1011.17 1010.91 1010.61 1010.28 1009.93 1009.57 1009.21 1008.84 1008.47 1008.09 1007.71 1007.31 1006.90 1006.49 1006.07 1005.65 1005.22 1004.81 1004.40 1004.01
1007.94 1008.01 1008.09 1008.20 1008.36 1008.57 1008.84 1009.16 1009.51 1009.89 1010.25 1010.59 1010.87 1011.08 1011.21 1011.24 1011.18 1011.04 1010.82 1010.54 1010.21 1009.86 1009.49 1009.12 1008.74 1008.37 1008.00 1007.62 1007.25 1006.87 1006.48 1006.08 1005.68 1005.26 1004.84 1004.42 1003.99 1003.57
Thickness
5743 5740 5739 5739 5738 5737 5735 5732 5726 5723 5727 5730 5731 5733 5731 5730 5728 5727 5726 5724 5723 5722 5722 5721 5721 5721 5721 5721 5721 5720 5719 5718 5717 5715 5713 5712 5712 5711
5737 5734 5732 5734 5733 5731 5730 5728 5727 5723 5721 5726 5726 5727 5726 5727 5724 5723 5723 5721 5719 5719 5718 5717 5716 5716 5716 5716 5716 5715 5714 5713 5712 5711 5709 5708 5707 5706
5733 5731 5728 5726 5726 5726 5725 5724 5722 5720 5716 5720 5723 5722 5719 5718 5719 5719 5719 5719 5719 5715 5714 5713 5712 5711 5711 5711 5710 5711 5710 5708 5707 5705 5704 5702 5702 5701
5727 5725 5723 5722 5719 5718 5717 5717 5716 5714 5711 5710 5714 5715 5713 5712 5712 5712 5715 5716 5715 5712 5710 5708 5707 5706 5705 5705 5705 5704 5704 5703 5702 5700 5699 5697 5696 5695
5723 5720 5718 5716 5713 5712 5710 5711 5711 5711 5708 5706 5708 5709 5709 5708 5706 5707 5709 5708 5710 5709 5705 5703 5702 5701 5699 5699 5698 5698 5698 5697 5696 5694 5692 5691 5690 5689
5718 5715 5714 5711 5708 5705 5704 5703 5703 5702 5702 5701 5701 5702 5702 5702 5700 5700 5700 5701 5702 5704 5702 5700 5697 5695 5694 5693 5692 5691 5690 5689 5688 5688 5686 5685 5684 5683
5712 5710 5709 5706 5701 5699 5699 5698 5696 5695 5695 5695 5694 5694 5694 5693 5693 5694 5693 5694 5695 5695 5695 5695 5694 5693 5691 5687 5686 5684 5683 5682 5681 5681 5680 5679 5678 5677
5705 5704 5702 5699 5695 5691 5689 5688 5686 5686 5686 5685 5687 5685 5684 5685 5685 5685 5685 5685 5685 5689 5686 5687 5688 5686 5685 5684 5680 5678 5676 5675 5674 5673 5672 5672 5671 5671
5699 5696 5696 5695 5690 5687 5684 5681 5680 5679 5677 5677 5677 5677 5678 5678 5676 5676 5675 5675 5676 5680 5678 5679 5681 5679 5679 5678 5674 5671 5670 5668 5667 5666 5665 5665 5664 5664
5692 5689 5686 5684 5683 5679 5679 5678 5677 5675 5673 5672 5671 5670 5671 5669 5668 5668 5667 5668 5670 5672 5671 5670 5673 5673 5674 5671 5667 5665 5663 5662 5661 5659 5659 5658 5657 5656
5686 5683 5680 5677 5672 5669 5669 5669 5669 5668 5667 5665 5662 5661 5660 5660 5659 5660 5660 5661 5662 5665 5665 5663 5665 5665 5665 5665 5662 5659 5657 5656 5654 5653 5652 5650 5649 5648
5679 5676 5672 5669 5664 5661 5661 5661 5661 5661 5661 5660 5656 5655 5655 5655 5652 5652 5654 5654 5655 5656 5659 5656 5657 5656 5656 5659 5658 5655 5652 5650 5648 5647 5645 5644 5642 5642
5672 5670 5668 5661 5656 5653 5652 5654 5653 5652 5654 5653 5653 5653 5652 5651 5651 5649 5649 5648 5648 5649 5652 5650 5650 5649 5648 5649 5650 5650 5648 5646 5644 5641 5640 5637 5635 5635
5662 5662 5659 5652 5648 5646 5645 5644 5643 5642 5646 5647 5646 5646 5646 5646 5646 5645 5643 5642 5642 5643 5643 5642 5641 5641 5640 5640 5641 5642 5642 5640 5639 5637 5635 5631 5629 5628
5653 5650 5647 5643 5641 5641 5639 5637 5636 5638 5639 5639 5639 5639 5640 5639 5638 5637 5636 5635 5635 5636 5636 5634 5634 5634 5634 5634 5634 5634 5633 5633 5633 5631 5629 5627 5625 5623
5645 5642 5638 5637 5636 5635 5634 5634 5633 5634 5633 5632 5632 5633 5633 5631 5630 5631 5630 5629 5629 5630 5629 5628 5627 5626 5626 5628 5628 5628 5627 5626 5626 5625 5623 5622 5620 5619
5634 5635 5636 5635 5633 5632 5631 5630 5628 5627 5626 5625 5625 5624 5624 5624 5624 5625 5623 5623 5623 5623 5623 5623 5622 5620 5620 5620 5620 5621 5620 5619 5618 5617 5614 5615 5615 5614
5624 5629 5630 5629 5627 5626 5625 5623 5622 5620 5619 5617 5617 5617 5617 5618 5618 5618 5617 5616 5616 5617 5616 5617 5616 5614 5614 5614 5612 5613 5613 5612 5610 5608 5607 5607 5607 5607
5619 5623 5623 5622 5621 5619 5617 5616 5615 5613 5611 5611 5610 5611 5611 5611 5611 5611 5611 5610 5610 5611 5611 5610 5610 5608 5607 5608 5607 5604 5605 5605 5603 5602 5601 5601 5601 5600
5616 5616 5615 5614 5613 5612 5610 5608 5607 5606 5605 5604 5604 5604 5604 5604 5604 5605 5605 5604 5604 5604 5604 5604 5604 5604 5604 5604 5602 5599 5597 5597 5597 5595 5594 5594 5593 5591
5610 5608 5607 5607 5606 5604 5603 5601 5599 5598 5598 5598 5598 5598 5599 5599 5599 5599 5599 5596 5596 5599 5599 5599 5599 5597 5599 5598 5596 5595 5592 5589 5588 5587 5587 5588 5587 5586
5602 5601 5600 5599 5598 5597 5596 5595 5594 5593 5593 5593 5593 5593 5594 5594 5593 5593 5594 5593 5593 5593 5594 5594 5592 5592 5593 5592 5590 5588 5586 5583 5580 5578 5577 5578 5580 5579
5594 5593 5593 5592 5592 5591 5590 5589 5589 5589 5588 5587 5588 5588 5588 5588 5588 5589 5590 5589 5589 5588 5588 5587 5587 5586 5586 5585 5584 5582 5580 5578 5577 5574 5572 5569 5568 5568